TimeEDT,TemperatureF,Dew PointF,Humidity,Sea Level PressureIn,VisibilityMPH,Wind Direction,Wind SpeedMPH,Gust SpeedMPH,PrecipitationIn,Events,Conditions,WindDirDegrees,DateUTC
12:51 AM,46.9,37.9,71,30.28,10.0,WSW,4.6,-,N/A,,Clear,240,2012-10-14 04:51:00
1:51 AM,50.0,37.9,63,30.25,10.0,SSW,13.8,-,N/A,,Clear,210,2012-10-14 05:51:00
2:51 AM,50.0,39.0,66,30.24,10.0,SW,10.4,-,N/A,,Clear,220,2012-10-14 06:51:00
3:51 AM,48.0,39.9,74,30.22,10.0,SW,5.8,-,N/A,,Clear,220,2012-10-14 07:51:00
4:51 AM,50.0,42.1,74,30.21,10.0,SSW,9.2,-,N/A,,Overcast,210,2012-10-14 08:51:00
5:51 AM,48.9,41.0,74,30.21,10.0,NW,3.5,-,N/A,,Overcast,320,2012-10-14 09:51:00
6:51 AM,51.1,44.1,77,30.19,10.0,SSW,4.6,-,N/A,,Overcast,200,2012-10-14 10:51:00
7:51 AM,52.0,45.0,77,30.19,10.0,SSW,6.9,-,N/A,,Overcast,210,2012-10-14 11:51:00
8:51 AM,54.0,46.0,75,30.20,10.0,SSW,8.1,-,N/A,,Overcast,210,2012-10-14 12:51:00
9:51 AM,55.0,46.9,74,30.20,10.0,SSW,4.6,-,N/A,,Overcast,210,2012-10-14 13:51:00
10:51 AM,55.9,48.0,75,30.19,10.0,SSW,3.5,-,N/A,,Overcast,200,2012-10-14 14:51:00
11:51 AM,57.9,48.0,70,30.17,10.0,SW,4.6,-,N/A,,Overcast,230,2012-10-14 15:51:00
12:51 PM,59.0,48.0,67,30.15,10.0,WSW,8.1,-,N/A,,Overcast,240,2012-10-14 16:51:00
1:51 PM,61.0,50.0,67,30.11,10.0,West,5.8,-,N/A,,Overcast,260,2012-10-14 17:51:00
2:51 PM,64.9,50.0,58,30.07,10.0,SSW,4.6,-,N/A,,Clear,210,2012-10-14 18:51:00
3:51 PM,66.9,51.1,57,30.04,10.0,Calm,Calm,-,N/A,,Scattered Clouds,0,2012-10-14 19:51:00
4:51 PM,69.1,52.0,54,30.02,10.0,South,4.6,-,N/A,,Clear,190,2012-10-14 20:51:00
5:51 PM,68.0,51.1,55,30.01,10.0,South,9.2,-,N/A,,Clear,190,2012-10-14 21:51:00
6:51 PM,64.9,48.9,56,30.01,10.0,South,8.1,-,N/A,,Clear,190,2012-10-14 22:51:00
7:51 PM,61.0,48.9,64,30.00,10.0,South,4.6,-,N/A,,Clear,190,2012-10-14 23:51:00
8:51 PM,60.1,48.9,67,29.98,10.0,SSE,4.6,-,N/A,,Clear,150,2012-10-15 00:51:00
9:51 PM,57.0,48.0,72,29.97,10.0,Calm,Calm,-,N/A,,Clear,0,2012-10-15 01:51:00
10:51 PM,55.9,48.9,77,29.96,10.0,Calm,Calm,-,N/A,,Clear,0,2012-10-15 02:51:00
11:51 PM,59.0,52.0,78,29.93,10.0,Calm,Calm,-,N/A,,Clear,0,2012-10-15 03:51:00